Regional Weather Roundup
Issued by NWS Bismarck, ND

Home | Current Version | Previous Version | Text Only | Print | Product List | Glossary On
Versions: 1 2 3 4 5 6 7 8 9 10 11 12 13 14 15 16 17 18 19 20 21 22 23 24 25 26 27 28 29 30 31 32 33 34 35 36 37 38 39 40 41 42 43 44 45 46 47 48 49 50
000
ASUS43 KBIS 201859
RWRBIS

NWR BROADCAST TEXT
NATIONAL WEATHER SERVICE BISMARCK ND
100 PM CST SAT DEC 20 2014

NOTE: "FAIR" INDICATES FEW OR NO CLOUDS BELOW 12,000 FEET WITH NO
SIGNIFICANT WEATHER AND/OR OBSTRUCTIONS TO VISIBILITY.


CITY           SKY/WX    TMP DP  RH WIND       PRES   REMARKS
WILLISTON      SUNNY     32  29  88 S8        29.80F
MINOT          CLOUDY    23  20  88 SE3       29.82F FOG
MINOT AFB      NOT AVBL
BISMARCK       CLOUDY    24  23  96 SE5       29.87F WCI  18
DICKINSON      NOT AVBL
GARRISON         N/A     29  25  85 SW6       29.84S
HETTINGER ARPT MOSUNNY   44  30  57 W14       29.86F
JAMESTOWN      NOT AVBL
CARRINGTON     CLOUDY    23  23 100 MISG      29.90F FOG
CROSBY         FAIR      32  32 100 S9        29.78F
HAZEN          FAIR      27  27 100 W3        29.85S
OAKES            N/A     27  27 100 S13       29.96F FOG     WCI  16
WATFORD CITY   FAIR      39  32  75 SW14      29.79F
$$

CITY           SKY/WX    TMP DP  RH WIND       PRES   REMARKS
GRAND FORKS    FOG       28  27  96 S14       29.97F VSB 1   WCI  17
GRAND FORKS AF NOT AVBL
DEVILS LAKE    CLOUDY    25  18  74 S6        29.88F VSB 1/2 WCI  18
FARGO          CLOUDY    32  28  85 S13       29.99F FOG
GWINNER        CLOUDY    30  30 100 MISG      29.98F
$$

CITY           SKY/WX    TMP DP  RH WIND       PRES   REMARKS
ABERDEEN       CLOUDY    27  25  92 S9        29.99S FOG     WCI  18
MOBRIDGE       CLOUDY    29  26  89 SE10      29.87F WCI  20
BUFFALO          N/A     49  29  46 NW18      29.80F
RAPID CITY     CLOUDY    49  28  44 N13       29.90F
GLASGOW        SUNNY     43  25  49 W17       29.79F
SIDNEY         SUNNY     39  30  70 SW10      29.83F
WOLF POINT     MOSUNNY   42  29  59 SW7       29.80F
GLENDIVE       SUNNY     45  27  49 W12       29.85F
MILES CITY     SUNNY     44  28  53 SW10      29.87F
BAKER          SUNNY     44  28  53 W13       29.86F
$$

CITY           SKY/WX    TMP DP  RH WIND       PRES   REMARKS
BILLINGS       PTSUNNY   36  23  59 SW13      29.90F
GREAT FALLS    CLOUDY    40  22  48 SW15G23   29.81F
$$




USA.gov is the U.S. government's official web portal to all federal, state and local government web resources and services.